Regional Weather Roundup
Issued by NWS

Home | Current Version | Previous Version | Text Only | Print | Product List | Glossary Off
Versions: 1 2 3 4 5 6 7 8 9 10 11 12 13 14 15 16 17 18 19 20 21 22 23 24 25 26 27 28 29 30 31 32 33 34 35 36 37 38 39 40 41 42 43 44 45 46 47 48 49 50

000
ASUS45 KABQ 060901
RWRNM
NEW MEXICO REGIONAL WEATHER ROUNDUP
NATIONAL WEATHER SERVICE ALBUQUERQUE NM
200 AM MST SAT FEB 06 2016

NOTE: "FAIR" MEANS FEW OR NO CLOUDS BELOW 12,000 FEET AGL WITH NO
       SIGNIFICANT WEATHER OR OBSTRUCTIONS TO VISION.

      THIS PRODUCT IS RELEASED AS TWO VERSIONS.  ONE VERSION NEAR
      THE TOP OF THE HOUR CONTAINING PRELIMINARY DATA FROM ALBUQUERQUE
      AND OTHER STATIONS.  A FINAL VERSION WITH ADDITIONAL DATA IS
      ISSUED ABOUT 10 MINUTES AFTER THE HOUR.

NMZ501-503-504-510>518-061000-
NORTHWEST PLATEAU/NORTHCENTRAL MOUNTAINS

CITY           SKY/WX    TMP DP  RH WIND       PRES   REMARKS
FARMINGTON     CLOUDY    15   9  76 N3        30.48R
SANTA FE       CLOUDY    20  11  68 W5        30.41R WCI  13
TAOS           CLOUDY     1  -6  71 N8        30.42S WCI -12

$$
NMZ402-403-502-505>509-061000-
WESTCENTRAL MOUNTAINS/SOUTHWEST MOUNTAINS

CITY           SKY/WX    TMP DP  RH WIND       PRES   REMARKS
GALLUP         CLEAR     11   7  84 E7        30.48S WCI   0
SILVER CITY      N/A     18   7  62 N10       30.47R WCI   6

$$
NMZ407-409-411-412-061000-
SOUTHERN DESERTS

CITY           SKY/WX    TMP DP  RH WIND       PRES   REMARKS
DEMING         CLEAR     24   4  42 NW8       30.47R WCI  15
HOLLOMAN AFB   CLOUDY    18  -1  43 N5        30.43F WCI  11
ALAMOGORDO     CLOUDY    27   1  33 CALM      30.44F
T OR C         CLEAR     30   3  31 NW5       30.44F WCI  25

$$
NMZ519>523-061000-
CENTRAL VALLEYS/CENTRAL HIGHLANDS

CITY           SKY/WX    TMP DP  RH WIND       PRES   REMARKS
ALBUQUERQUE    CLOUDY    28  12  51 N7        30.47S WCI  21
DOUBLE EAGLE   CLOUDY    21  11  66 N5        30.45S WCI  15
CLINES CORNERS CLOUDY    20   8  60 NW24      30.31F WCI   3
BELEN          FAIR      18   9  67 N6        30.47S WCI  10
SOCORRO        NOT AVBL

$$
NMZ524>526-539-540-061000-
SOUTHCENTRAL MOUNTAINS

CITY           SKY/WX    TMP DP  RH WIND       PRES   REMARKS
RUIDOSO          N/A     25   1  36 W9        30.39F WCI  15

$$
NMZ527>531-061000-
NORTHEAST HIGHLANDS/NORTHEAST PLAINS

CITY           SKY/WX    TMP DP  RH WIND       PRES   REMARKS
LAS VEGAS      CLOUDY    20   2  45 W3        30.31F
RATON          CLOUDY     8   3  80 NE8       30.30F WCI  -4
CLAYTON        CLEAR     19   9  65 W8        30.33S WCI   9

$$
NMZ532>537-061000-
EASTCENTRAL PLAINS

CITY           SKY/WX    TMP DP  RH WIND       PRES   REMARKS
TUCUMCARI      CLOUDY    18  12  77 W7        30.37S WCI   9
CANNON AFB     NOT AVBL
CLOVIS AIRPORT CLEAR     19  14  79 NW8       30.38S WCI   9

$$
NMZ028-029-538-061000-
SOUTHEAST PLAINS

CITY           SKY/WX    TMP DP  RH WIND       PRES   REMARKS
ROSWELL        CLOUDY    25  12  58 CALM      30.41S
ARTESIA        CLOUDY    27  12  54 W12       30.43S WCI  16
CARLSBAD       CLEAR     27  13  55 SW7       30.42S WCI  19
HOBBS          CLEAR     23  16  74 W9        30.42R WCI  13


$$



USA.gov is the U.S. government's official web portal to all federal, state and local government web resources and services.